When you browse on this site, cookies collect data to enhance your experience and personalize the content and advertising you see.
Visit our Privacy Policy to learn more. By continuing to use the site, you agree to this use of cookies and data.
  • In Romania
  • List of Countries
  • For 7 days
  • Water Temperature
  • Satellite Maps
  • Weather Map
  • Weather Widgets
  • user-avatar
    Login

    Hourly Weather Zagorskiy

    Today, 17 November, Saturday

    Time Temperature Precipitation Wind Pressure Humidity
    00:00 +3°C° 0.1 mm 5 mps 736 mmHg 89%
    01:00 +3°C° 0 mm 5 mps 736 mmHg 89%
    02:00 +4°C° 0 mm 4 mps 736 mmHg 89%
    03:00 +4°C° 0 mm 2 mps 737 mmHg 86%
    04:00 +2°C° 0.1 mm 3 mps 737 mmHg 87%
    05:00 +2°C° 0.1 mm 3 mps 737 mmHg 87%
    06:00 +1°C° 0.1 mm 4 mps 737 mmHg 88%
    07:00 +2°C° 0.6 mm 3 mps 737 mmHg 89%
    08:00 +2°C° 0.6 mm 3 mps 737 mmHg 90%
    09:00 +3°C° 0.6 mm 3 mps 737 mmHg 90%
    10:00 +4°C° 1.3 mm 2 mps 738 mmHg 92%
    11:00 +4°C° 1.3 mm 2 mps 738 mmHg 93%
    12:00 +4°C° 1.3 mm 2 mps 738 mmHg 94%
    13:00 +4°C° 0.2 mm 2 mps 738 mmHg 94%
    14:00 +4°C° 0.2 mm 2 mps 738 mmHg 94%
    15:00 +5°C° 0.2 mm 1 mps 738 mmHg 94%
    16:00 +5°C° 0 mm 1 mps 739 mmHg 94%
    17:00 +5°C° 0 mm 1 mps 739 mmHg 94%
    18:00 +5°C° 0 mm 1 mps 739 mmHg 95%
    19:00 +5°C° 0.1 mm 1 mps 739 mmHg 94%
    20:00 +5°C° 0.1 mm 1 mps 739 mmHg 94%
    21:00 +5°C° 0.1 mm 1 mps 739 mmHg 93%
    22:00 +5°C° 0.2 mm 1 mps 739 mmHg 93%
    23:00 +5°C° 0.2 mm 1 mps 739 mmHg 93%

    Tomorrow, 18 November, Sunday

    Time Temperature Precipitation Wind Pressure Humidity
    00:00 +5°C° 0.2 mm 1 mps 739 mmHg 93%
    01:00 +5°C° 0.1 mm 1 mps 739 mmHg 93%
    02:00 +5°C° 0.1 mm 1 mps 738 mmHg 92%
    03:00 +4°C° 0.1 mm 0 mps 738 mmHg 92%
    04:00 +4°C° 0.2 mm 0 mps 738 mmHg 92%
    05:00 +3°C° 0.2 mm 0 mps 738 mmHg 91%
    06:00 +3°C° 0.2 mm 0 mps 738 mmHg 91%
    07:00 +4°C° 0 mm 0 mps 738 mmHg 89%
    08:00 +4°C° 0 mm 0 mps 738 mmHg 88%
    09:00 +5°C° 0 mm 0 mps 738 mmHg 86%
    10:00 +6°C° 0 mm 0 mps 737 mmHg 81%
    11:00 +8°C° 0 mm 1 mps 737 mmHg 77%
    12:00 +9°C° 0 mm 1 mps 737 mmHg 73%
    13:00 +9°C° 0 mm 1 mps 737 mmHg 73%
    14:00 +10°C° 0 mm 1 mps 737 mmHg 73%
    15:00 +10°C° 0 mm 1 mps 736 mmHg 73%
    16:00 +8°C° 0 mm 2 mps 737 mmHg 78%
    17:00 +7°C° 0 mm 2 mps 737 mmHg 83%
    18:00 +6°C° 0 mm 2 mps 737 mmHg 88%
    19:00 +5°C° 0 mm 2 mps 737 mmHg 89%
    20:00 +5°C° 0 mm 2 mps 737 mmHg 90%
    21:00 +5°C° 0 mm 1 mps 737 mmHg 91%
    22:00 +5°C° 0 mm 1 mps 737 mmHg 91%
    23:00 +5°C° 0 mm 1 mps 737 mmHg 91%

    Day after tomorrow, 19 November, Monday

    Time Temperature Precipitation Wind Pressure Humidity
    00:00 +5°C° 0 mm 1 mps 737 mmHg 91%
    01:00 +5°C° 0 mm 1 mps 737 mmHg 91%
    02:00 +5°C° 0 mm 1 mps 737 mmHg 91%
    03:00 +4°C° 0 mm 1 mps 737 mmHg 91%
    04:00 +3°C° 0 mm 2 mps 737 mmHg 91%
    05:00 +3°C° 0 mm 2 mps 737 mmHg 91%
    06:00 +3°C° 0 mm 2 mps 737 mmHg 91%
    07:00 +3°C° 0 mm 3 mps 737 mmHg 89%
    08:00 +3°C° 0 mm 3 mps 738 mmHg 88%
    09:00 +4°C° 0 mm 3 mps 738 mmHg 87%
    10:00 +4°C° 0 mm 4 mps 737 mmHg 84%
    11:00 +5°C° 0 mm 4 mps 737 mmHg 81%
    12:00 +6°C° 0 mm 4 mps 736 mmHg 78%
    13:00 +6°C° 0 mm 5 mps 736 mmHg 78%
    14:00 +6°C° 0 mm 5 mps 736 mmHg 77%
    15:00 +6°C° 0 mm 5 mps 736 mmHg 77%
    16:00 +6°C° 0 mm 5 mps 736 mmHg 79%
    17:00 +5°C° 0 mm 5 mps 736 mmHg 82%
    18:00 +5°C° 0 mm 5 mps 737 mmHg 84%
    19:00 +3°C° 0 mm 5 mps 737 mmHg 84%
    20:00 +3°C° 0 mm 5 mps 736 mmHg 84%
    21:00 +3°C° 0 mm 5 mps 736 mmHg 84%
    22:00 +3°C° 0 mm 5 mps 736 mmHg 85%
    23:00 +3°C° 0 mm 5 mps 736 mmHg 85%

    20 November, Tuesday

    Time Temperature Precipitation Wind Pressure Humidity
    00:00 +3°C° 0 mm 5 mps 736 mmHg 85%
    01:00 +4°C° 0 mm 4 mps 736 mmHg 86%
    02:00 +4°C° 0 mm 4 mps 736 mmHg 86%
    03:00 +4°C° 0 mm 3 mps 736 mmHg 86%
    04:00 +4°C° 0.1 mm 3 mps 736 mmHg 87%
    05:00 +4°C° 0.1 mm 3 mps 737 mmHg 87%
    06:00 +5°C° 0.1 mm 2 mps 737 mmHg 88%
    07:00 +5°C° 0.1 mm 2 mps 737 mmHg 87%
    08:00 +5°C° 0.1 mm 2 mps 737 mmHg 86%
    09:00 +6°C° 0.1 mm 2 mps 737 mmHg 86%
    10:00 +6°C° 0.2 mm 2 mps 737 mmHg 84%
    11:00 +7°C° 0.2 mm 2 mps 737 mmHg 82%
    12:00 +8°C° 0.2 mm 2 mps 736 mmHg 80%
    13:00 +8°C° 0 mm 2 mps 736 mmHg 78%
    14:00 +9°C° 0 mm 2 mps 736 mmHg 75%
    15:00 +10°C° 0 mm 2 mps 736 mmHg 73%
    16:00 +9°C° 0 mm 2 mps 736 mmHg 75%
    17:00 +8°C° 0 mm 2 mps 736 mmHg 78%
    18:00 +8°C° 0 mm 2 mps 736 mmHg 80%
    19:00 +8°C° 0 mm 2 mps 736 mmHg 78%
    20:00 +9°C° 0 mm 1 mps 736 mmHg 77%
    21:00 +9°C° 0 mm 1 mps 736 mmHg 75%
    22:00 +9°C° 0 mm 1 mps 736 mmHg 75%
    23:00 +9°C° 0 mm 1 mps 735 mmHg 75%

    21 November, Wednesday

    Time Temperature Precipitation Wind Pressure Humidity
    00:00 +9°C° 0 mm 1 mps 735 mmHg 74%
    01:00 +9°C° 0 mm 1 mps 735 mmHg 75%
    02:00 +8°C° 0 mm 1 mps 735 mmHg 76%
    03:00 +8°C° 0 mm 1 mps 735 mmHg 77%
    04:00 +8°C° 0 mm 1 mps 734 mmHg 78%
    05:00 +8°C° 0 mm 1 mps 734 mmHg 79%
    06:00 +8°C° 0 mm 1 mps 734 mmHg 80%
    07:00 +8°C° 0.2 mm 0 mps 734 mmHg 80%
    08:00 +8°C° 0.2 mm 0 mps 733 mmHg 79%
    09:00 +9°C° 0.2 mm 0 mps 733 mmHg 79%
    10:00 +9°C° 0.1 mm 0 mps 733 mmHg 77%
    11:00 +10°C° 0.1 mm 0 mps 732 mmHg 74%
    12:00 +11°C° 0.1 mm 0 mps 732 mmHg 71%
    13:00 +11°C° 0.1 mm 0 mps 732 mmHg 73%
    14:00 +12°C° 0.1 mm 1 mps 732 mmHg 74%
    15:00 +12°C° 0.1 mm 1 mps 731 mmHg 75%
    16:00 +11°C° 0.1 mm 1 mps 731 mmHg 80%
    17:00 +9°C° 0.1 mm 0 mps 731 mmHg 85%
    18:00 +9°C° 0.1 mm 0 mps 731 mmHg 90%
    19:00 +8°C° 0.1 mm 0 mps 731 mmHg 91%
    20:00 +8°C° 0.1 mm 0 mps 731 mmHg 92%
    21:00 +9°C° 0.1 mm 1 mps 731 mmHg 93%
    22:00 +9°C° 0.3 mm 1 mps 731 mmHg 93%
    23:00 +9°C° 0.3 mm 1 mps 731 mmHg 93%

    22 November, Thursday

    Time Temperature Precipitation Wind Pressure Humidity
    00:00 +8°C° 0.3 mm 1 mps 730 mmHg 93%
    01:00 +7°C° 0.7 mm 2 mps 730 mmHg 93%
    02:00 +7°C° 0.7 mm 2 mps 730 mmHg 93%
    03:00 +6°C° 0.7 mm 2 mps 730 mmHg 93%
    04:00 +6°C° 1.3 mm 2 mps 730 mmHg 92%
    05:00 +5°C° 1.3 mm 2 mps 730 mmHg 92%
    06:00 +5°C° 1.3 mm 2 mps 730 mmHg 91%
    07:00 +4°C° 1.4 mm 2 mps 731 mmHg 91%
    08:00 +4°C° 1.4 mm 2 mps 731 mmHg 91%
    09:00 +3°C° 1.4 mm 2 mps 731 mmHg 91%
    10:00 +3°C° 1.3 mm 2 mps 731 mmHg 92%
    11:00 +3°C° 1.3 mm 2 mps 731 mmHg 94%
    12:00 +3°C° 1.3 mm 2 mps 731 mmHg 95%
    13:00 +2°C° 0.9 mm 2 mps 731 mmHg 95%
    14:00 +3°C° 0.9 mm 1 mps 731 mmHg 96%
    15:00 +3°C° 0.9 mm 1 mps 731 mmHg 96%
    16:00 +3°C° 0.9 mm 1 mps 731 mmHg 96%
    17:00 +3°C° 0.9 mm 1 mps 731 mmHg 96%
    18:00 +3°C° 0.9 mm 1 mps 732 mmHg 96%
    19:00 +2°C° 0.6 mm 1 mps 732 mmHg 95%
    20:00 +2°C° 0.6 mm 1 mps 732 mmHg 95%
    21:00 +1°C° 0.6 mm 2 mps 732 mmHg 95%
    22:00 +1°C° 0.5 mm 2 mps 732 mmHg 95%
    23:00 +1°C° 0.5 mm 2 mps 732 mmHg 95%
    Show more